Starlink 30242

operational
NORAD ID: 57739 Int'l Des: 2023-131 Owner: SPXS Country: US Constellation: starlink
LEOCIRCULAR

关于 Starlink 30242

正在加载描述...

实时位置

正在加载3D地球...

即将过境

高度历史

Altitude vs Time

uPlot chart will show altitude changes over time

两行轨道根数

1 57739U 23131H 25352.94537140 -.00000317 00000-0 -83798-5 0 9994
2 57739 43.0010 225.1711 0000996 276.4228 83.6500 15.02533949128076
Epoch: Dec 18, 2025 • Age: 11 hours

当前状态

高度 570.6 km
速度 7.58 km/s
星下点 -40.12°S, 122.06°W
发射日期 Sep 1, 2023
运行时间 2.2 years
类型 internet

技术详情

分类 Payload
质量 730.00 kg
干质量 700.00 kg
总质量 730.00 kg
长度 0.30 m
直径 4.10 m
跨度 29.00 m
形状 Box + pan
制造商 SPXS
平台类型 Starlink V2M
阶段状态 In Orbit
所有者/国家 SPXS/US

大型星座

Loading constellations...